Weather History for KGUY - December, 2012

Change the Weather History Date:

Tuesday, December 4, 2012

  Actual Average Record
Temperature  
Mean Temperature 47 °F 38 °F  
Max Temperature 60 °F 51 °F 75 °F (2007)
Min Temperature 34 °F 24 °F 12 °F (2002)
Degree Days  
Heating Degree Days 18 27  
Month to date heating degree days 49 107  
Since 1 July heating degree days 782 998  
Cooling Degree Days 0 0  
Month to date cooling degree days 0 0  
Year to date cooling degree days 1917 1482  
Moisture  
Dew Point 23 °F    
Average Humidity 43    
Maximum Humidity 64    
Minimum Humidity 21    
Precipitation  
Precipitation T in 0.04 in 0.37 in (2014)
Month to date precipitation T 0.17  
Year to date precipitation 10.79 18.83  
Snow  
Snow 0.00 in - - ()
Month to date snowfall 0.0  
Since 1 July snowfall 0.0  
Snow Depth 0.00 in    
Sea Level Pressure  
Sea Level Pressure 30.26 in    
Wind  
Wind Speed 6 mph (WSW)    
Max Wind Speed 13 mph    
Max Gust Speed 16 mph    
Visibility 10 miles    
Events Rain    
T = Trace of Precipitation, MM = Missing Value Source: NWS Daily Summary

Daily Weather History Graph

Daily Weather History Graph

Search for Another Location

Airport or City:

Trip Planner

Search our weather history database for the weather conditions in past years. The results will help you decide how hot, cold, wet, or windy it might be!

Date:

Astronomy

Dec. 04, 2012 Rise Set
Actual Time 7:43 AM CST 5:29 PM CST
Civil Twilight 7:14 AM CST 5:58 PM CST
Nautical Twilight 6:42 AM CST 6:30 PM CST
Astronomical Twilight 6:10 AM CST 7:01 PM CST
Moon 11:13 PM CST (12/4) 11:43 AM CST (12/4)
Length of Visible Light 10h 43m
Length of Day
9h 46m
Waning Gibbous, 69% of the Moon is Illuminated
Dec 4
Waning Gibbous
Dec 6
Last Quarter
Dec 13
New
Dec 19
First Quarter
Dec 28
Full

Hourly Weather History & Observations

Time (CST) Temp. Windchill Dew Point Humidity Pressure Visibility Wind Dir Wind Speed Gust Speed Precip Events Conditions
12:53 AM 48.9 °F - 30.0 °F 48% 30.07 in 10.0 mi NE 12.7 mph - 0.00 in Rain Light Rain
1:53 AM 46.0 °F 41.9 °F 30.0 °F 54% 30.13 in 10.0 mi NNW 8.1 mph - 0.00 in   Mostly Cloudy
2:53 AM 43.0 °F 39.5 °F 28.9 °F 58% 30.17 in 10.0 mi NW 5.8 mph - N/A   Scattered Clouds
3:53 AM 42.1 °F 38.4 °F 28.0 °F 58% 30.19 in 10.0 mi NNW 5.8 mph - N/A   Partly Cloudy
4:53 AM 39.0 °F 36.8 °F 26.1 °F 60% 30.21 in 10.0 mi NW 3.5 mph - N/A   Clear
5:53 AM 37.0 °F 34.5 °F 25.0 °F 62% 30.25 in 10.0 mi NW 3.5 mph - N/A   Scattered Clouds
6:53 AM 37.0 °F 34.5 °F 23.0 °F 57% 30.28 in 10.0 mi NW 3.5 mph - N/A   Partly Cloudy
7:53 AM 35.1 °F 29.3 °F 24.1 °F 64% 30.34 in 10.0 mi WNW 6.9 mph - N/A   Clear
8:53 AM 39.9 °F 35.1 °F 24.1 °F 53% 30.35 in 10.0 mi WNW 6.9 mph - N/A   Clear
9:53 AM 48.0 °F - 24.1 °F 39% 30.35 in 10.0 mi West 3.5 mph - N/A   Clear
10:53 AM 52.0 °F - 24.1 °F 34% 30.34 in 10.0 mi SSW 4.6 mph - N/A   Clear
12:53 PM 57.9 °F - 23.0 °F 26% 30.29 in 10.0 mi Variable 4.6 mph - N/A   Clear
1:53 PM 59.0 °F - 19.0 °F 21% 30.27 in 10.0 mi SSW 8.1 mph - N/A   Clear
2:53 PM 60.1 °F - 21.0 °F 22% 30.25 in 10.0 mi South 8.1 mph - N/A   Clear
3:53 PM 60.1 °F - 23.0 °F 24% 30.25 in 10.0 mi South 10.4 mph - N/A   Clear
4:53 PM 57.0 °F - 21.9 °F 26% 30.25 in 10.0 mi South 6.9 mph - N/A   Clear
5:53 PM 50.0 °F - 21.0 °F 32% 30.27 in 10.0 mi South 8.1 mph - N/A   Clear
6:53 PM 43.0 °F 40.3 °F 19.0 °F 38% 30.28 in 10.0 mi South 4.6 mph - N/A   Clear
7:53 PM 41.0 °F 37.1 °F 19.0 °F 41% 30.27 in 10.0 mi South 5.8 mph - N/A   Clear
8:53 PM 37.9 °F 32.7 °F 18.0 °F 45% 30.28 in 10.0 mi SSW 6.9 mph - N/A   Clear
9:53 PM 37.0 °F 31.6 °F 18.0 °F 46% 30.27 in 10.0 mi SSW 6.9 mph - N/A   Clear
10:53 PM 35.1 °F 29.3 °F 17.1 °F 48% 30.26 in 10.0 mi SSW 6.9 mph - N/A   Clear
11:53 PM 35.1 °F 30.1 °F 15.1 °F 44% 30.25 in 10.0 mi SSW 5.8 mph - N/A   Clear